TimeEDT,TemperatureF,Dew PointF,Humidity,Sea Level PressureIn,VisibilityMPH,Wind Direction,Wind SpeedMPH,Gust SpeedMPH,PrecipitationIn,Events,Conditions,WindDirDegrees,DateUTC
12:53 AM,43.0,23.0,45,30.43,10.0,North,11.5,-,N/A,,Clear,10,2012-10-13 04:53:00
1:53 AM,41.0,23.0,49,30.43,10.0,North,9.2,-,N/A,,Clear,360,2012-10-13 05:53:00
2:53 AM,41.0,21.9,47,30.43,10.0,North,6.9,-,N/A,,Clear,360,2012-10-13 06:53:00
3:53 AM,37.9,23.0,55,30.45,10.0,NNE,4.6,-,N/A,,Clear,20,2012-10-13 07:53:00
4:53 AM,37.0,24.1,59,30.47,10.0,Calm,Calm,-,N/A,,Clear,0,2012-10-13 08:53:00
5:53 AM,37.0,24.1,59,30.47,10.0,Calm,Calm,-,N/A,,Clear,0,2012-10-13 09:53:00
6:53 AM,34.0,26.1,73,30.50,10.0,Calm,Calm,-,N/A,,Clear,0,2012-10-13 10:53:00
7:53 AM,35.1,28.0,76,30.51,10.0,Calm,Calm,-,N/A,,Clear,0,2012-10-13 11:53:00
8:53 AM,42.1,28.0,58,30.52,10.0,Calm,Calm,-,N/A,,Clear,0,2012-10-13 12:53:00
9:53 AM,46.0,26.1,46,30.53,10.0,Variable,3.5,-,N/A,,Clear,0,2012-10-13 13:53:00
10:53 AM,46.9,25.0,42,30.52,10.0,South,4.6,-,N/A,,Clear,170,2012-10-13 14:53:00
11:53 AM,48.9,26.1,41,30.51,10.0,Variable,4.6,-,N/A,,Clear,0,2012-10-13 15:53:00
12:53 PM,50.0,24.1,36,30.48,10.0,Variable,3.5,-,N/A,,Clear,0,2012-10-13 16:53:00
1:53 PM,50.0,26.1,39,30.45,10.0,South,10.4,-,N/A,,Clear,190,2012-10-13 17:53:00
2:53 PM,50.0,25.0,38,30.43,10.0,SW,11.5,-,N/A,,Clear,220,2012-10-13 18:53:00
4:53 PM,50.0,28.0,43,30.41,10.0,South,10.4,-,N/A,,Clear,180,2012-10-13 20:53:00
5:53 PM,48.0,32.0,54,30.41,10.0,South,9.2,-,N/A,,Clear,190,2012-10-13 21:53:00
6:53 PM,46.0,33.1,61,30.40,10.0,South,4.6,-,N/A,,Clear,170,2012-10-13 22:53:00
8:53 PM,51.1,37.0,59,30.38,10.0,SSW,9.2,-,N/A,,Clear,200,2012-10-14 00:53:00
10:53 PM,52.0,41.0,66,30.35,10.0,SW,10.4,-,N/A,,Partly Cloudy,220,2012-10-14 02:53:00
11:53 PM,52.0,41.0,66,30.32,10.0,SW,6.9,-,N/A,,Clear,230,2012-10-14 03:53:00